Location: Del Oro Observatory
(38.3044°N, 104.8119°W)
Time: 06:12:43
(UTC-06:00)

Cosmos 1602 Rocket - Visible Passes

Search period start: 22 September 2014 00:00
Search period end: 02 October 2014 00:00
Orbit: 605 x 636 km, 82.5° (Epoch: 21 September)

Date Brightness Start Highest point End Pass type
(mag) Time Alt. Az. Time Alt. Az. Time Alt. Az.
22 Sep 6.6 03:20:17 12° NE 03:20:17 12° NE 03:20:36 10° NE visible
22 Sep 5.7 04:57:29 14° NNW 04:57:29 14° NNW 04:58:20 10° NNW visible
23 Sep 6.4 03:38:24 13° NNE 03:38:24 13° NNE 03:38:52 10° NNE visible
24 Sep 6.3 03:56:30 12° N 03:56:30 12° N 03:56:46 10° N visible
